Simultaneous Nadir Overpasses (SNOs) Predictions

Prediction of SNOs between METOP-B and TERRA Satellite Orbit:

Table of predicted SNOs for the next 14.0 days since TLE Epoch: 12/6/2014
Index Date (METOP-B) Time (METOP-B) Lat,Lon (METOP-B) SZA (METOP-B ) Date (TERRA) Time (TERRA) Lat,Lon (TERRA) SZA (TERRA ) Distance(km) Time Diff (sec)
1 12/08/2014 21:11:44 81.26, -91.46 106.81 12/08/2014 21:12:22 81.27, -91.40 106.83 1.16 38
2 12/08/2014 22:02:25 -81.27, 76.02 73.18 12/08/2014 22:01:49 -81.26, 76.15 73.18 2.37 36
3 12/11/2014 16:46:07 81.26, -25.11 107.02 12/11/2014 16:46:35 81.26, -25.02 107.04 1.58 28
4 12/11/2014 17:36:47 -81.27, 142.79 72.92 12/11/2014 17:36:01 -81.28, 142.92 72.92 2.43 46
5 12/14/2014 12:20:28 81.27, 41.48 107.20 12/14/2014 12:20:46 81.26, 41.42 107.20 0.92 18
6 12/
